カタログに戻る

SL-6 R/B(2)

運用中HEO
NORAD 37171·ROCKET BODY·🇷🇺 Russia

打ち上げ Sep 30, 2010 から Plesetsk Cosmodrome

Loading…

次のパス (今後24時間)

TLE

最新Source: Space-Track

元期: Sep 14, 2026, 02:12 UTC

1 37171U 10049B   26257.09196489  .00000302  00000-0  26126-4 0  9997
2 37171  61.8208 163.6260 7379866 258.0123  18.3315  2.04427015118878

AllMySatでSL-6 R/B(2)をリアルタイム追跡

Download on the App Store